EZY574U EGAA-EGPF

Flight info

Callsign EZY574U
Flight time 0h 34m
Altitude 19000
Route BLACA
Aircraft A319/M-SDE3FGHIRWY/LB1

Departure

Time 2026-01-18 08:49
Airport Belfast International Airport (EGAA)

Arrival

Time 2026-01-18 09:23
Airport Glasgow Airport (EGPF)
Time Latitude Longitude Altitude Speed Heading
2026-01-18 08:17 54.65997 -6.21768 272 ft 0 kts 245°
2026-01-18 08:40 54.66010 -6.21722 272 ft 3 kts 245°
2026-01-18 08:41 54.66017 -6.21695 275 ft 3 kts 256°
2026-01-18 08:41 54.65995 -6.21622 279 ft 1 kts 335°
2026-01-18 08:42 54.65990 -6.21619 275 ft 0 kts 335°
2026-01-18 08:44 54.65976 -6.21547 272 ft 9 kts 137°
2026-01-18 08:44 54.66031 -6.21223 275 ft 14 kts 65°
2026-01-18 08:45 54.66121 -6.20891 272 ft 17 kts 65°
2026-01-18 08:45 54.66230 -6.20490 276 ft 20 kts 65°
2026-01-18 08:45 54.66289 -6.20267 275 ft 21 kts 65°
2026-01-18 08:46 54.66390 -6.19880 275 ft 13 kts 72°
2026-01-18 08:46 54.66281 -6.19657 272 ft 13 kts 185°
2026-01-18 08:47 54.66247 -6.19729 275 ft 13 kts 242°
2026-01-18 08:47 54.65760 -6.21526 277 ft 156 kts 243°
2026-01-18 08:48 54.64202 -6.26948 2282 ft 187 kts 227°
2026-01-18 08:49 54.61996 -6.30147 3578 ft 229 kts 203°
2026-01-18 08:49 54.58777 -6.31172 5649 ft 243 kts 174°
2026-01-18 08:50 54.55603 -6.29022 7835 ft 255 kts 144°
2026-01-18 08:50 54.53547 -6.23897 10001 ft 275 kts 111°
2026-01-18 08:50 54.53279 -6.20573 10960 ft 288 kts 93°
2026-01-18 08:51 54.55888 -6.10413 13234 ft 340 kts 63°
2026-01-18 08:51 54.57131 -6.06877 14074 ft 348 kts 63°
2026-01-18 08:52 54.60979 -5.95924 16571 ft 364 kts 63°
2026-01-18 08:53 54.63611 -5.88360 18263 ft 372 kts 63°
2026-01-18 08:53 54.66292 -5.80607 19054 ft 377 kts 62°
2026-01-18 08:53 54.67597 -5.76763 19107 ft 362 kts 63°
2026-01-18 08:54 54.69988 -5.69453 19108 ft 343 kts 63°
2026-01-18 08:54 54.72377 -5.62325 19113 ft 342 kts 62°
2026-01-18 08:55 54.74818 -5.55242 19108 ft 342 kts 62°
2026-01-18 08:55 54.77270 -5.48175 19109 ft 342 kts 62°
2026-01-18 08:56 54.80939 -5.37511 19113 ft 348 kts 64°
2026-01-18 08:57 54.83392 -5.30230 19120 ft 350 kts 64°
2026-01-18 08:57 54.85878 -5.22961 19116 ft 350 kts 64°
2026-01-18 08:58 54.88865 -5.16177 19120 ft 358 kts 44°
2026-01-18 08:58 54.90909 -5.13686 19126 ft 360 kts 30°
2026-01-18 08:59 54.97633 -5.07904 19035 ft 360 kts 28°
2026-01-18 08:59 54.99869 -5.05950 18747 ft 356 kts 28°
2026-01-18 08:59 55.04291 -5.02083 17845 ft 356 kts 28°
2026-01-18 09:00 55.13115 -4.94384 16144 ft 351 kts 28°
2026-01-18 09:01 55.15298 -4.92478 15721 ft 350 kts 28°
2026-01-18 09:01 55.19647 -4.88675 14950 ft 347 kts 29°
2026-01-18 09:02 55.23879 -4.84967 14476 ft 335 kts 29°
2026-01-18 09:02 55.28042 -4.81298 13971 ft 330 kts 29°
2026-01-18 09:03 55.30065 -4.79441 13705 ft 327 kts 34°
2026-01-18 09:03 55.34715 -4.71113 12982 ft 316 kts 55°
2026-01-18 09:04 55.36102 -4.68124 12749 ft 315 kts 55°
2026-01-18 09:04 55.40237 -4.59209 12043 ft 312 kts 55°
2026-01-18 09:05 55.41604 -4.56255 11807 ft 311 kts 55°
2026-01-18 09:05 55.44318 -4.50370 11345 ft 308 kts 55°
2026-01-18 09:06 55.47016 -4.44506 10863 ft 307 kts 55°
2026-01-18 09:06 55.51042 -4.35747 10190 ft 304 kts 54°
2026-01-18 09:07 55.53685 -4.29961 9715 ft 301 kts 54°
2026-01-18 09:07 55.56294 -4.24225 9265 ft 298 kts 54°
2026-01-18 09:08 55.60145 -4.15758 8613 ft 293 kts 54°
2026-01-18 09:08 55.61418 -4.12954 8384 ft 292 kts 54°
2026-01-18 09:09 55.63959 -4.07350 7957 ft 288 kts 54°
2026-01-18 09:09 55.66449 -4.01831 7528 ft 285 kts 54°
2026-01-18 09:10 55.68855 -3.96547 7217 ft 263 kts 49°
2026-01-18 09:10 55.71518 -3.94566 6865 ft 253 kts 356°
2026-01-18 09:10 55.73165 -3.95460 6537 ft 248 kts 324°
2026-01-18 09:11 55.74648 -4.00530 6158 ft 238 kts 271°
2026-01-18 09:11 55.74670 -4.06386 6162 ft 234 kts 249°
2026-01-18 09:12 55.72580 -4.14172 6163 ft 232 kts 239°
2026-01-18 09:12 55.71845 -4.16725 6155 ft 232 kts 239°
2026-01-18 09:13 55.69652 -4.24204 5189 ft 226 kts 239°
2026-01-18 09:14 55.68201 -4.29113 4565 ft 221 kts 239°
2026-01-18 09:14 55.66773 -4.34001 4462 ft 224 kts 239°
2026-01-18 09:15 55.65751 -4.39221 4283 ft 232 kts 271°
2026-01-18 09:15 55.66376 -4.44862 4075 ft 234 kts 279°
2026-01-18 09:15 55.66742 -4.47682 3974 ft 234 kts 279°
2026-01-18 09:16 55.67861 -4.56177 3678 ft 236 kts 279°
2026-01-18 09:17 55.68603 -4.61782 3460 ft 226 kts 279°
2026-01-18 09:17 55.69922 -4.66528 3244 ft 218 kts 317°
2026-01-18 09:17 55.71246 -4.67832 3139 ft 220 kts 344°
2026-01-18 09:18 55.74148 -4.67208 2996 ft 211 kts 36°
2026-01-18 09:18 55.76227 -4.63709 2947 ft 206 kts 52°
2026-01-18 09:19 55.78207 -4.60043 2471 ft 204 kts 52°
2026-01-18 09:19 55.80155 -4.56431 1919 ft 199 kts 51°
2026-01-18 09:20 55.82798 -4.51523 1115 ft 166 kts 50°
2026-01-18 09:21 55.84280 -4.48765 667 ft 136 kts 47°
2026-01-18 09:21 55.84896 -4.47617 487 ft 125 kts 47°
2026-01-18 09:21 55.86063 -4.45441 166 ft 117 kts 48°
2026-01-18 09:22 55.87039 -4.43617 29 ft 51 kts 47°
2026-01-18 09:22 55.87212 -4.43122 29 ft 17 kts 88°
2026-01-18 09:23 55.87209 -4.42789 29 ft 8 kts 116°
2026-01-18 09:23 55.87087 -4.42795 29 ft 12 kts 198°
2026-01-18 09:24 55.86798 -4.42992 29 ft 12 kts 177°
2026-01-18 09:25 55.86714 -4.43013 29 ft 4 kts 258°
2026-01-18 09:25 55.86707 -4.43054 29 ft 0 kts 253°